Year,Month,Day,Hour,Minute,Value (Times are PST for temperature in C)
2021,03,28,00,00,6.90
2021,03,28,00,01,6.90
2021,03,28,00,02,6.90
2021,03,28,00,03,7.00
2021,03,28,00,04,7.00
2021,03,28,00,05,6.90
2021,03,28,00,06,6.90
2021,03,28,00,07,6.90
2021,03,28,00,08,6.90
2021,03,28,00,09,6.90
2021,03,28,00,10,6.80
2021,03,28,00,11,6.80
2021,03,28,00,12,6.80
2021,03,28,00,13,6.80
2021,03,28,00,14,6.80
2021,03,28,00,15,6.80
2021,03,28,00,16,6.80
2021,03,28,00,17,6.70
2021,03,28,00,18,6.70
2021,03,28,00,19,6.70
2021,03,28,00,20,6.70
2021,03,28,00,21,6.70
2021,03,28,00,22,6.70
2021,03,28,00,23,6.70
2021,03,28,00,24,6.70
2021,03,28,00,25,6.70
2021,03,28,00,26,6.60
2021,03,28,00,27,6.60
2021,03,28,00,28,6.60
2021,03,28,00,29,6.60
2021,03,28,00,30,6.60
2021,03,28,00,31,6.60
2021,03,28,00,32,6.60
2021,03,28,00,33,6.60
2021,03,28,00,34,6.60
2021,03,28,00,35,6.60
2021,03,28,00,36,6.60
2021,03,28,00,37,6.50
2021,03,28,00,38,6.50
2021,03,28,00,39,6.50
2021,03,28,00,40,6.50
2021,03,28,00,41,6.60
2021,03,28,00,42,6.60
2021,03,28,00,43,6.60
2021,03,28,00,44,6.60
2021,03,28,00,45,6.60
2021,03,28,00,46,6.60
2021,03,28,00,47,6.60
2021,03,28,00,48,6.60
2021,03,28,00,49,6.50
2021,03,28,00,50,6.50
2021,03,28,00,51,6.50
2021,03,28,00,52,6.50
2021,03,28,00,53,6.50
2021,03,28,00,54,6.50
2021,03,28,00,55,6.50
2021,03,28,00,56,6.50
2021,03,28,00,57,6.60
2021,03,28,00,58,6.60
2021,03,28,00,59,6.60
2021,03,28,01,00,6.50
2021,03,28,01,01,6.50
2021,03,28,01,02,6.50
2021,03,28,01,03,6.50
2021,03,28,01,04,6.50
2021,03,28,01,05,6.50
2021,03,28,01,06,6.50
2021,03,28,01,07,6.50
2021,03,28,01,08,6.50
2021,03,28,01,09,6.50
2021,03,28,01,10,6.60
2021,03,28,01,11,6.60
2021,03,28,01,12,6.60
2021,03,28,01,13,6.60
2021,03,28,01,14,6.60
2021,03,28,01,15,6.60
2021,03,28,01,16,6.60
2021,03,28,01,17,6.60
2021,03,28,01,18,6.60
2021,03,28,01,19,6.60
2021,03,28,01,20,6.60
2021,03,28,01,21,6.60
2021,03,28,01,22,6.60
2021,03,28,01,23,6.70
2021,03,28,01,24,6.70
2021,03,28,01,25,6.70
2021,03,28,01,26,6.70
2021,03,28,01,27,6.70
2021,03,28,01,28,6.70
2021,03,28,01,29,6.70
2021,03,28,01,30,6.70
2021,03,28,01,31,6.70
2021,03,28,01,32,6.70
2021,03,28,01,33,6.80
2021,03,28,01,34,6.80
2021,03,28,01,35,6.80
2021,03,28,01,36,6.80
2021,03,28,01,37,6.80
2021,03,28,01,38,6.80
2021,03,28,01,39,6.80
2021,03,28,01,40,6.80
2021,03,28,01,41,6.80
2021,03,28,01,42,6.80
2021,03,28,01,43,6.80
2021,03,28,01,44,6.80
2021,03,28,01,45,6.80
2021,03,28,01,46,6.80
2021,03,28,01,47,6.80
2021,03,28,01,48,6.80
2021,03,28,01,49,6.80
2021,03,28,01,50,6.70
2021,03,28,01,51,6.70
2021,03,28,01,52,6.70
2021,03,28,01,53,6.70
2021,03,28,01,54,6.70
2021,03,28,01,55,6.70
2021,03,28,01,56,6.70
2021,03,28,01,57,6.70
2021,03,28,01,58,6.70
2021,03,28,01,59,6.70
2021,03,28,02,00,6.70
2021,03,28,02,01,6.70
2021,03,28,02,02,6.70
2021,03,28,02,03,6.70
2021,03,28,02,04,6.70
2021,03,28,02,05,6.70
2021,03,28,02,06,6.70
2021,03,28,02,07,6.70
2021,03,28,02,08,6.70
2021,03,28,02,09,6.70
2021,03,28,02,10,6.70
2021,03,28,02,11,6.70
2021,03,28,02,12,6.70
2021,03,28,02,13,6.70
2021,03,28,02,14,6.70
2021,03,28,02,15,6.70
2021,03,28,02,16,6.70
2021,03,28,02,17,6.70
2021,03,28,02,18,6.70
2021,03,28,02,19,6.70
2021,03,28,02,20,6.70
2021,03,28,02,21,6.70
2021,03,28,02,22,6.70
2021,03,28,02,23,6.70
2021,03,28,02,24,6.70
2021,03,28,02,25,6.70
2021,03,28,02,26,6.70
2021,03,28,02,27,6.70
2021,03,28,02,28,6.80
2021,03,28,02,29,6.80
2021,03,28,02,30,6.80
2021,03,28,02,31,6.80
2021,03,28,02,32,6.80
2021,03,28,02,33,6.80
2021,03,28,02,34,6.80
2021,03,28,02,35,6.80
2021,03,28,02,36,6.80
2021,03,28,02,37,6.90
2021,03,28,02,38,7.00
2021,03,28,02,39,7.10
2021,03,28,02,40,7.20
2021,03,28,02,41,7.20
2021,03,28,02,42,7.30
2021,03,28,02,43,7.30
2021,03,28,02,44,7.40
2021,03,28,02,45,7.40
2021,03,28,02,46,7.50
2021,03,28,02,47,7.50
2021,03,28,02,48,7.60
2021,03,28,02,49,7.60
2021,03,28,02,50,7.70
2021,03,28,02,51,7.80
2021,03,28,02,52,7.90
2021,03,28,02,53,7.90
2021,03,28,02,54,7.90
2021,03,28,02,55,7.90
2021,03,28,02,56,8.00
2021,03,28,02,57,8.00
2021,03,28,02,58,8.00
2021,03,28,02,59,8.00
2021,03,28,03,00,8.00
2021,03,28,03,01,8.00
2021,03,28,03,02,8.10
2021,03,28,03,03,8.20
2021,03,28,03,04,8.30
2021,03,28,03,05,8.40
2021,03,28,03,06,8.40
2021,03,28,03,07,8.40
2021,03,28,03,08,8.40
2021,03,28,03,09,8.50
2021,03,28,03,10,8.50
2021,03,28,03,11,8.60
2021,03,28,03,12,8.60
2021,03,28,03,13,8.60
2021,03,28,03,14,8.60
2021,03,28,03,15,8.50
2021,03,28,03,16,8.50
2021,03,28,03,17,8.50
2021,03,28,03,18,8.50
2021,03,28,03,19,8.50
2021,03,28,03,20,8.50
2021,03,28,03,21,8.50
2021,03,28,03,22,8.40
2021,03,28,03,23,8.40
2021,03,28,03,24,8.40
2021,03,28,03,25,8.40
2021,03,28,03,26,8.30
2021,03,28,03,27,8.30
2021,03,28,03,28,8.20
2021,03,28,03,29,8.20
2021,03,28,03,30,8.10
2021,03,28,03,31,8.10
2021,03,28,03,32,8.10
2021,03,28,03,33,8.10
2021,03,28,03,34,8.10
2021,03,28,03,35,8.10
2021,03,28,03,36,8.10
2021,03,28,03,37,8.10
2021,03,28,03,38,8.10
2021,03,28,03,39,8.00
2021,03,28,03,40,8.00
2021,03,28,03,41,8.10
2021,03,28,03,42,8.10
2021,03,28,03,43,8.10
2021,03,28,03,44,8.20
2021,03,28,03,45,8.20
2021,03,28,03,46,8.10
2021,03,28,03,47,8.10
2021,03,28,03,48,8.10
2021,03,28,03,49,8.10
2021,03,28,03,50,8.00
2021,03,28,03,51,8.00
2021,03,28,03,52,8.00
2021,03,28,03,53,7.90
2021,03,28,03,54,7.90
2021,03,28,03,55,7.90
2021,03,28,03,56,7.80
2021,03,28,03,57,7.80
2021,03,28,03,58,7.80
2021,03,28,03,59,7.80
2021,03,28,04,00,7.80
2021,03,28,04,01,7.80
2021,03,28,04,02,7.90
2021,03,28,04,03,8.00
2021,03,28,04,04,8.10
2021,03,28,04,05,8.10
2021,03,28,04,06,8.20
2021,03,28,04,07,8.20
2021,03,28,04,08,8.20
2021,03,28,04,09,8.30
2021,03,28,04,10,8.30
2021,03,28,04,11,8.30
2021,03,28,04,12,8.30
2021,03,28,04,13,8.30
2021,03,28,04,14,8.40
2021,03,28,04,15,8.40
2021,03,28,04,16,8.40
2021,03,28,04,17,8.40
2021,03,28,04,18,8.40
2021,03,28,04,19,8.40
2021,03,28,04,20,8.40
2021,03,28,04,21,8.40
2021,03,28,04,22,8.40
2021,03,28,04,23,8.40
2021,03,28,04,24,8.40
2021,03,28,04,25,8.40
2021,03,28,04,26,8.30
2021,03,28,04,27,8.30
2021,03,28,04,28,8.30
2021,03,28,04,29,8.30
2021,03,28,04,30,8.30
2021,03,28,04,31,8.30
2021,03,28,04,32,8.30
2021,03,28,04,33,8.30
2021,03,28,04,34,8.30
2021,03,28,04,35,8.30
2021,03,28,04,36,8.30
2021,03,28,04,37,8.30
2021,03,28,04,38,8.30
2021,03,28,04,39,8.30
2021,03,28,04,40,8.30
2021,03,28,04,41,8.30
2021,03,28,04,42,8.30
2021,03,28,04,43,8.30
2021,03,28,04,44,8.30
2021,03,28,04,45,8.30
2021,03,28,04,46,8.30
2021,03,28,04,47,8.30
2021,03,28,04,48,8.30
2021,03,28,04,49,8.30
2021,03,28,04,50,8.30
2021,03,28,04,51,8.30
2021,03,28,04,52,8.30
2021,03,28,04,53,8.20
2021,03,28,04,54,8.20
2021,03,28,04,55,8.20
2021,03,28,04,56,8.20
2021,03,28,04,57,8.30
2021,03,28,04,58,8.30
2021,03,28,04,59,8.30
2021,03,28,05,00,8.30
2021,03,28,05,01,8.30
2021,03,28,05,02,8.30
2021,03,28,05,03,8.30
2021,03,28,05,04,8.30
2021,03,28,05,05,8.30
2021,03,28,05,06,8.30
2021,03,28,05,07,8.30
2021,03,28,05,08,8.30
2021,03,28,05,09,8.30
2021,03,28,05,10,8.30
2021,03,28,05,11,8.30
2021,03,28,05,12,8.30
2021,03,28,05,13,8.30
2021,03,28,05,14,8.30
2021,03,28,05,15,8.20
2021,03,28,05,16,8.20
2021,03,28,05,17,8.20
2021,03,28,05,18,8.20
2021,03,28,05,19,8.20
2021,03,28,05,20,8.20
2021,03,28,05,21,8.20
2021,03,28,05,22,8.20
2021,03,28,05,23,8.10
2021,03,28,05,24,8.10
2021,03,28,05,25,8.10
2021,03,28,05,26,8.10
2021,03,28,05,27,8.10
2021,03,28,05,28,8.10
2021,03,28,05,29,8.10
2021,03,28,05,30,8.10
2021,03,28,05,31,8.10
2021,03,28,05,32,8.10
2021,03,28,05,33,8.20
2021,03,28,05,34,8.20
2021,03,28,05,35,8.30
2021,03,28,05,36,8.30
2021,03,28,05,37,8.30
2021,03,28,05,38,8.30
2021,03,28,05,39,8.30
2021,03,28,05,40,8.30
2021,03,28,05,41,8.30
2021,03,28,05,42,8.30
2021,03,28,05,43,8.30
2021,03,28,05,44,8.30
2021,03,28,05,45,8.30
2021,03,28,05,46,8.30
2021,03,28,05,47,8.30
2021,03,28,05,48,8.30
2021,03,28,05,49,8.30
2021,03,28,05,50,8.20
2021,03,28,05,51,8.20
2021,03,28,05,52,8.20
2021,03,28,05,53,8.20
2021,03,28,05,54,8.20
2021,03,28,05,55,8.10
2021,03,28,05,56,8.10
2021,03,28,05,57,8.10
2021,03,28,05,58,8.10
2021,03,28,05,59,8.10
2021,03,28,06,00,8.10
2021,03,28,06,01,8.10
2021,03,28,06,02,8.10
2021,03,28,06,03,8.10
2021,03,28,06,04,8.10
2021,03,28,06,05,8.10
2021,03,28,06,06,8.10
2021,03,28,06,07,8.10
2021,03,28,06,08,8.10
2021,03,28,06,09,8.10
2021,03,28,06,10,8.10
2021,03,28,06,11,8.10
2021,03,28,06,12,8.10
2021,03,28,06,13,8.10
2021,03,28,06,14,8.10
2021,03,28,06,15,8.10
2021,03,28,06,16,8.10
2021,03,28,06,17,8.10
2021,03,28,06,18,8.10
2021,03,28,06,19,8.20
2021,03,28,06,20,8.20
2021,03,28,06,21,8.20
2021,03,28,06,22,8.20
2021,03,28,06,23,8.20
2021,03,28,06,24,8.20
2021,03,28,06,25,8.20
2021,03,28,06,26,8.20
2021,03,28,06,27,8.20
2021,03,28,06,28,8.20
2021,03,28,06,29,8.20
2021,03,28,06,30,8.20
2021,03,28,06,31,8.20
2021,03,28,06,32,8.30
2021,03,28,06,33,8.30
2021,03,28,06,34,8.30
2021,03,28,06,35,8.30
2021,03,28,06,36,8.30
2021,03,28,06,37,8.30
2021,03,28,06,38,8.30
2021,03,28,06,39,8.30
2021,03,28,06,40,8.30
2021,03,28,06,41,8.30
2021,03,28,06,42,8.30
2021,03,28,06,43,8.30
2021,03,28,06,44,8.30
2021,03,28,06,45,8.30
2021,03,28,06,46,8.40
2021,03,28,06,47,8.40
2021,03,28,06,48,8.40
2021,03,28,06,49,8.30
2021,03,28,06,50,8.30
2021,03,28,06,51,8.30
2021,03,28,06,52,8.30
2021,03,28,06,53,8.30
2021,03,28,06,54,8.30
2021,03,28,06,55,8.30
2021,03,28,06,56,8.30
2021,03,28,06,57,8.30
2021,03,28,06,58,8.30
2021,03,28,06,59,8.30
2021,03,28,07,00,8.30
2021,03,28,07,01,8.30
2021,03,28,07,02,8.30
2021,03,28,07,03,8.30
2021,03,28,07,04,8.30
2021,03,28,07,05,8.30
2021,03,28,07,06,8.30
2021,03,28,07,07,8.30
2021,03,28,07,08,8.30
2021,03,28,07,09,8.30
2021,03,28,07,10,8.20
2021,03,28,07,11,8.20
2021,03,28,07,12,8.20
2021,03,28,07,13,8.20
2021,03,28,07,14,8.20
2021,03,28,07,15,8.20
2021,03,28,07,16,8.20
2021,03,28,07,17,8.20
2021,03,28,07,18,8.20
2021,03,28,07,19,8.20
2021,03,28,07,20,8.20
2021,03,28,07,21,8.20
2021,03,28,07,22,8.20
2021,03,28,07,23,8.20
2021,03,28,07,24,8.20
2021,03,28,07,25,8.20
2021,03,28,07,26,8.20
2021,03,28,07,27,8.20
2021,03,28,07,28,8.20
2021,03,28,07,29,8.20
2021,03,28,07,30,8.20
2021,03,28,07,31,8.20
2021,03,28,07,32,8.20
2021,03,28,07,33,8.20
2021,03,28,07,34,8.30
2021,03,28,07,35,8.30
2021,03,28,07,36,8.30
2021,03,28,07,37,8.20
2021,03,28,07,38,8.30
2021,03,28,07,39,8.20
2021,03,28,07,40,8.20
2021,03,28,07,41,8.20
2021,03,28,07,42,8.20
2021,03,28,07,43,8.20
2021,03,28,07,44,8.20
2021,03,28,07,45,8.30
2021,03,28,07,46,8.30
2021,03,28,07,47,8.30
2021,03,28,07,48,8.30
2021,03,28,07,49,8.30
2021,03,28,07,50,8.30
2021,03,28,07,51,8.20
2021,03,28,07,52,8.20
2021,03,28,07,53,8.20
2021,03,28,07,54,8.20
2021,03,28,07,55,8.20
2021,03,28,07,56,8.20
2021,03,28,07,57,8.20
2021,03,28,07,58,8.20
2021,03,28,07,59,8.20
2021,03,28,08,00,8.20
2021,03,28,08,01,8.20
2021,03,28,08,02,8.20
2021,03,28,08,03,8.20
2021,03,28,08,04,8.20
2021,03,28,08,05,8.20
2021,03,28,08,06,8.20
2021,03,28,08,07,8.20
2021,03,28,08,08,8.30
2021,03,28,08,09,8.30
2021,03,28,08,10,8.30
2021,03,28,08,11,8.30
2021,03,28,08,12,8.30
2021,03,28,08,13,8.30
2021,03,28,08,14,8.30
2021,03,28,08,15,8.30
2021,03,28,08,16,8.30
2021,03,28,08,17,8.40
2021,03,28,08,18,8.40
2021,03,28,08,19,8.40
2021,03,28,08,20,8.40
2021,03,28,08,21,8.40
2021,03,28,08,22,8.40
2021,03,28,08,23,8.40
2021,03,28,08,24,8.40
2021,03,28,08,25,8.40
2021,03,28,08,26,8.50
2021,03,28,08,27,8.40
2021,03,28,08,28,8.40
2021,03,28,08,29,8.40
2021,03,28,08,30,8.40
2021,03,28,08,31,8.40
2021,03,28,08,32,8.40
2021,03,28,08,33,8.40
2021,03,28,08,34,8.40
2021,03,28,08,35,8.40
2021,03,28,08,36,8.40
2021,03,28,08,37,8.40
2021,03,28,08,38,8.40
2021,03,28,08,39,8.40
2021,03,28,08,40,8.40
2021,03,28,08,41,8.40
2021,03,28,08,42,8.30
2021,03,28,08,43,8.30
2021,03,28,08,44,8.40
2021,03,28,08,45,8.40
2021,03,28,08,46,8.40
2021,03,28,08,47,8.40
2021,03,28,08,48,8.40
2021,03,28,08,49,8.40
2021,03,28,08,50,8.40
2021,03,28,08,51,8.40
2021,03,28,08,52,8.40
2021,03,28,08,53,8.50
2021,03,28,08,54,8.50
2021,03,28,08,55,8.50
2021,03,28,08,56,8.50
2021,03,28,08,57,8.50
2021,03,28,08,58,8.50
2021,03,28,08,59,8.50
2021,03,28,09,00,8.50
2021,03,28,09,01,8.50
2021,03,28,09,02,8.50
2021,03,28,09,03,8.50
2021,03,28,09,04,8.60
2021,03,28,09,05,8.60
2021,03,28,09,06,8.60
2021,03,28,09,07,8.60
2021,03,28,09,08,8.60
2021,03,28,09,09,8.60
2021,03,28,09,10,8.60
2021,03,28,09,11,8.60
2021,03,28,09,12,8.60
2021,03,28,09,13,8.60
2021,03,28,09,14,8.60
2021,03,28,09,15,8.70
2021,03,28,09,16,8.70
2021,03,28,09,17,8.70
2021,03,28,09,18,8.70
2021,03,28,09,19,8.70
2021,03,28,09,20,8.70
2021,03,28,09,21,8.80
2021,03,28,09,22,8.80
2021,03,28,09,23,8.80
2021,03,28,09,24,8.80
2021,03,28,09,25,8.80
2021,03,28,09,26,8.70
2021,03,28,09,27,8.70
2021,03,28,09,28,8.70
2021,03,28,09,29,8.70
2021,03,28,09,30,8.70
2021,03,28,09,31,8.70
2021,03,28,09,32,8.60
2021,03,28,09,33,8.60
2021,03,28,09,34,8.60
2021,03,28,09,35,8.50
2021,03,28,09,36,8.50
2021,03,28,09,37,8.40
2021,03,28,09,38,8.40
2021,03,28,09,39,8.40
2021,03,28,09,40,8.40
2021,03,28,09,41,8.40
2021,03,28,09,42,8.40
2021,03,28,09,43,8.40
2021,03,28,09,44,8.40
2021,03,28,09,45,8.40
2021,03,28,09,46,8.40
2021,03,28,09,47,8.40
2021,03,28,09,48,8.40
2021,03,28,09,49,8.50
2021,03,28,09,50,8.50
2021,03,28,09,51,8.50
2021,03,28,09,52,8.60
2021,03,28,09,53,8.60
2021,03,28,09,54,8.60
2021,03,28,09,55,8.70
2021,03,28,09,56,8.70
2021,03,28,09,57,8.70
2021,03,28,09,58,8.60
2021,03,28,09,59,8.70
2021,03,28,10,00,8.60
2021,03,28,10,01,8.60
2021,03,28,10,02,8.60
2021,03,28,10,03,8.60
2021,03,28,10,04,8.60
2021,03,28,10,05,8.60
2021,03,28,10,06,8.60
2021,03,28,10,07,8.60
2021,03,28,10,08,8.60
2021,03,28,10,09,8.60
2021,03,28,10,10,8.60
2021,03,28,10,11,8.60
2021,03,28,10,12,8.60
2021,03,28,10,13,8.60
2021,03,28,10,14,8.60
2021,03,28,10,15,8.60
2021,03,28,10,16,8.60
2021,03,28,10,17,8.60
2021,03,28,10,18,8.60
2021,03,28,10,19,8.60
2021,03,28,10,20,8.50
2021,03,28,10,21,8.50
2021,03,28,10,22,8.50
2021,03,28,10,23,8.60
2021,03,28,10,24,8.50
2021,03,28,10,25,8.60
2021,03,28,10,26,8.60
2021,03,28,10,27,8.60
2021,03,28,10,28,8.70
2021,03,28,10,29,8.70
2021,03,28,10,30,8.70
2021,03,28,10,31,8.70
2021,03,28,10,32,8.70
2021,03,28,10,33,8.80
2021,03,28,10,34,8.80
2021,03,28,10,35,8.80
2021,03,28,10,36,8.80
2021,03,28,10,37,8.80
2021,03,28,10,38,8.80
2021,03,28,10,39,8.80
2021,03,28,10,40,8.80
2021,03,28,10,41,8.80
2021,03,28,10,42,8.80
2021,03,28,10,43,8.80
2021,03,28,10,44,8.80
2021,03,28,10,45,8.80
2021,03,28,10,46,8.80
2021,03,28,10,47,8.80
2021,03,28,10,48,8.80
2021,03,28,10,49,8.80
2021,03,28,10,50,8.80
2021,03,28,10,51,8.70
2021,03,28,10,52,8.70
2021,03,28,10,53,8.60
2021,03,28,10,54,8.60
2021,03,28,10,55,8.50
2021,03,28,10,56,8.50
2021,03,28,10,57,8.40
2021,03,28,10,58,8.40
2021,03,28,10,59,8.30
2021,03,28,11,00,8.30
2021,03,28,11,01,8.20
2021,03,28,11,02,8.10
2021,03,28,11,03,8.00
2021,03,28,11,04,8.00
2021,03,28,11,05,7.90
2021,03,28,11,06,7.90
2021,03,28,11,07,7.80
2021,03,28,11,08,7.80
2021,03,28,11,09,7.70
2021,03,28,11,10,7.60
2021,03,28,11,11,7.50
2021,03,28,11,12,7.40
2021,03,28,11,13,7.30
2021,03,28,11,14,7.30
2021,03,28,11,15,7.20
2021,03,28,11,16,7.20
2021,03,28,11,17,7.20
2021,03,28,11,18,7.20
2021,03,28,11,19,7.10
2021,03,28,11,20,7.00
2021,03,28,11,21,6.90
2021,03,28,11,22,6.90
2021,03,28,11,23,6.90
2021,03,28,11,24,6.80
2021,03,28,11,25,6.80
2021,03,28,11,26,6.70
2021,03,28,11,27,6.70
2021,03,28,11,28,6.60
2021,03,28,11,29,6.60
2021,03,28,11,30,6.60
2021,03,28,11,31,6.60
2021,03,28,11,32,6.60
2021,03,28,11,33,6.60
2021,03,28,11,34,6.60
2021,03,28,11,35,6.70
2021,03,28,11,36,6.70
2021,03,28,11,37,6.70
2021,03,28,11,38,6.70
2021,03,28,11,39,6.70
2021,03,28,11,40,6.70
2021,03,28,11,41,6.80
2021,03,28,11,42,6.80
2021,03,28,11,43,6.80
2021,03,28,11,44,6.80
2021,03,28,11,45,6.80
2021,03,28,11,46,6.80
2021,03,28,11,47,6.80
2021,03,28,11,48,6.80
2021,03,28,11,49,6.80
2021,03,28,11,50,6.80
2021,03,28,11,51,6.90
2021,03,28,11,52,6.90
2021,03,28,11,53,6.90
2021,03,28,11,54,6.90
2021,03,28,11,55,6.90
2021,03,28,11,56,6.90
2021,03,28,11,57,6.90
2021,03,28,11,58,6.90
2021,03,28,11,59,6.90
2021,03,28,12,00,6.90
2021,03,28,12,01,7.00
2021,03,28,12,02,7.00
2021,03,28,12,03,7.00
2021,03,28,12,04,7.10
2021,03,28,12,05,7.10
2021,03,28,12,06,7.10
2021,03,28,12,07,7.10
2021,03,28,12,08,7.10
2021,03,28,12,09,7.10
2021,03,28,12,10,7.10
2021,03,28,12,11,7.10
2021,03,28,12,12,7.10
2021,03,28,12,13,7.20
2021,03,28,12,14,7.10
2021,03,28,12,15,7.10
2021,03,28,12,16,7.10
2021,03,28,12,17,7.10
2021,03,28,12,18,7.10
2021,03,28,12,19,7.10
2021,03,28,12,20,7.10
2021,03,28,12,21,7.10
2021,03,28,12,22,7.20
2021,03,28,12,23,7.20
2021,03,28,12,24,7.20
2021,03,28,12,25,7.20
2021,03,28,12,26,7.20
2021,03,28,12,27,7.20
2021,03,28,12,28,7.20
2021,03,28,12,29,7.20
2021,03,28,12,30,7.20
2021,03,28,12,31,7.20
2021,03,28,12,32,7.20
2021,03,28,12,33,7.20
2021,03,28,12,34,7.30
2021,03,28,12,35,7.30
2021,03,28,12,36,7.30
2021,03,28,12,37,7.30
2021,03,28,12,38,7.20
2021,03,28,12,39,7.20
2021,03,28,12,40,7.10
2021,03,28,12,41,7.10
2021,03,28,12,42,7.10
2021,03,28,12,43,7.10
2021,03,28,12,44,7.20
2021,03,28,12,45,7.20
2021,03,28,12,46,7.30
2021,03,28,12,47,7.20
2021,03,28,12,48,7.20
2021,03,28,12,49,7.20
2021,03,28,12,50,7.20
2021,03,28,12,51,7.10
2021,03,28,12,52,7.10
2021,03,28,12,53,7.10
2021,03,28,12,54,7.10
2021,03,28,12,55,7.10
2021,03,28,12,56,7.10
2021,03,28,12,57,7.10
2021,03,28,12,58,7.20
2021,03,28,12,59,7.20
2021,03,28,13,00,7.20
2021,03,28,13,01,7.20
2021,03,28,13,02,7.20
2021,03,28,13,03,7.20
2021,03,28,13,04,7.20
2021,03,28,13,05,7.20
2021,03,28,13,06,7.30
2021,03,28,13,07,7.30
2021,03,28,13,08,7.30
2021,03,28,13,09,7.30
2021,03,28,13,10,7.30
2021,03,28,13,11,7.30
2021,03,28,13,12,7.30
2021,03,28,13,13,7.30
2021,03,28,13,14,7.30
2021,03,28,13,15,7.30
2021,03,28,13,16,7.40
2021,03,28,13,17,7.30
2021,03,28,13,18,7.30
2021,03,28,13,19,7.20
2021,03,28,13,20,7.10
2021,03,28,13,21,7.10
2021,03,28,13,22,7.10
2021,03,28,13,23,7.10
2021,03,28,13,24,7.10
2021,03,28,13,25,7.10
2021,03,28,13,26,6.90
2021,03,28,13,27,6.80
2021,03,28,13,28,6.70
2021,03,28,13,29,6.70
2021,03,28,13,30,6.70
2021,03,28,13,31,6.70
2021,03,28,13,32,6.80
2021,03,28,13,33,6.80
2021,03,28,13,34,6.80
2021,03,28,13,35,6.90
2021,03,28,13,36,7.00
2021,03,28,13,37,7.20
2021,03,28,13,38,7.30
2021,03,28,13,39,7.40
2021,03,28,13,40,7.40
2021,03,28,13,41,7.50
2021,03,28,13,42,7.60
2021,03,28,13,43,7.60
2021,03,28,13,44,7.60
2021,03,28,13,45,7.60
2021,03,28,13,46,7.60
2021,03,28,13,47,7.70
2021,03,28,13,48,7.70
2021,03,28,13,49,7.60
2021,03,28,13,50,7.70
2021,03,28,13,51,7.70
2021,03,28,13,52,7.70
2021,03,28,13,53,7.80
2021,03,28,13,54,7.90
2021,03,28,13,55,8.00
2021,03,28,13,56,8.00
2021,03,28,13,57,8.10
2021,03,28,13,58,8.20
2021,03,28,13,59,8.20
2021,03,28,14,00,8.20
2021,03,28,14,01,8.30
2021,03,28,14,02,8.40
2021,03,28,14,03,8.40
2021,03,28,14,04,8.50
2021,03,28,14,05,8.60
2021,03,28,14,06,8.70
2021,03,28,14,07,8.80
2021,03,28,14,08,8.90
2021,03,28,14,09,8.90
2021,03,28,14,10,9.00
2021,03,28,14,11,9.00
2021,03,28,14,12,9.00
2021,03,28,14,13,9.10
2021,03,28,14,14,9.20
2021,03,28,14,15,9.20
2021,03,28,14,16,9.20
2021,03,28,14,17,9.20
2021,03,28,14,18,9.30
2021,03,28,14,19,9.40
2021,03,28,14,20,9.40
2021,03,28,14,21,9.40
2021,03,28,14,22,9.50
2021,03,28,14,23,9.50
2021,03,28,14,24,9.50
2021,03,28,14,25,9.60
2021,03,28,14,26,9.60
2021,03,28,14,27,9.50
2021,03,28,14,28,9.50
2021,03,28,14,29,9.50
2021,03,28,14,30,9.40
2021,03,28,14,31,9.30
2021,03,28,14,32,9.30
2021,03,28,14,33,9.30
2021,03,28,14,34,9.30
2021,03,28,14,35,9.30
2021,03,28,14,36,9.30
2021,03,28,14,37,9.30
2021,03,28,14,38,9.30
2021,03,28,14,39,9.30
2021,03,28,14,40,9.40
2021,03,28,14,41,9.30
2021,03,28,14,42,9.20
2021,03,28,14,43,9.20
2021,03,28,14,44,9.10
2021,03,28,14,45,9.20
2021,03,28,14,46,9.20
2021,03,28,14,47,9.10
2021,03,28,14,48,9.10
2021,03,28,14,49,9.20
2021,03,28,14,50,9.20
2021,03,28,14,51,9.10
2021,03,28,14,52,9.00
2021,03,28,14,53,8.90
2021,03,28,14,54,8.80
2021,03,28,14,55,8.70
2021,03,28,14,56,8.70
2021,03,28,14,57,8.60
2021,03,28,14,58,8.50
2021,03,28,14,59,8.40
2021,03,28,15,00,8.40
2021,03,28,15,01,8.40
2021,03,28,15,02,8.40
2021,03,28,15,03,8.40
2021,03,28,15,04,8.40
2021,03,28,15,05,8.40
2021,03,28,15,06,8.40
2021,03,28,15,07,8.40
2021,03,28,15,08,8.40
2021,03,28,15,09,8.40
2021,03,28,15,10,8.30
2021,03,28,15,11,8.30
2021,03,28,15,12,8.30
2021,03,28,15,13,8.20
2021,03,28,15,14,8.10
2021,03,28,15,15,8.10
2021,03,28,15,16,8.00
2021,03,28,15,17,8.00
2021,03,28,15,18,8.00
2021,03,28,15,19,7.90
2021,03,28,15,20,7.80
2021,03,28,15,21,7.80
2021,03,28,15,22,7.80
2021,03,28,15,23,7.80
2021,03,28,15,24,7.80
2021,03,28,15,25,7.80
2021,03,28,15,26,7.80
2021,03,28,15,27,7.90
2021,03,28,15,28,7.80
2021,03,28,15,29,7.80
2021,03,28,15,30,7.80
2021,03,28,15,31,7.80
2021,03,28,15,32,7.80
2021,03,28,15,33,7.80
2021,03,28,15,34,7.80
2021,03,28,15,35,7.80
2021,03,28,15,36,7.90
2021,03,28,15,37,7.90
2021,03,28,15,38,8.00
2021,03,28,15,39,8.00
2021,03,28,15,40,8.10
2021,03,28,15,41,8.10
2021,03,28,15,42,8.10
2021,03,28,15,43,8.10
2021,03,28,15,44,8.10
2021,03,28,15,45,8.10
2021,03,28,15,46,8.10
2021,03,28,15,47,8.00
2021,03,28,15,48,7.80
2021,03,28,15,49,7.50
2021,03,28,15,50,7.20
2021,03,28,15,51,6.80
2021,03,28,15,52,6.50
2021,03,28,15,53,6.30
2021,03,28,15,54,6.10
2021,03,28,15,55,5.90
2021,03,28,15,56,5.70
2021,03,28,15,57,5.50
2021,03,28,15,58,5.50
2021,03,28,15,59,5.40
2021,03,28,16,00,5.40
2021,03,28,16,01,5.40
2021,03,28,16,02,5.40
2021,03,28,16,03,5.40
2021,03,28,16,04,5.30
2021,03,28,16,05,5.30
2021,03,28,16,06,5.20
2021,03,28,16,07,5.20
2021,03,28,16,08,5.10
2021,03,28,16,09,5.10
2021,03,28,16,10,5.10
2021,03,28,16,11,5.00
2021,03,28,16,12,5.00
2021,03,28,16,13,5.00
2021,03,28,16,14,5.00
2021,03,28,16,15,5.00
2021,03,28,16,16,5.00
2021,03,28,16,17,5.10
2021,03,28,16,18,5.10
2021,03,28,16,19,5.10
2021,03,28,16,20,5.10
2021,03,28,16,21,5.20
2021,03,28,16,22,5.20
2021,03,28,16,23,5.20
2021,03,28,16,24,5.20
2021,03,28,16,25,5.20
2021,03,28,16,26,5.20
2021,03,28,16,27,5.20
2021,03,28,16,28,5.20
2021,03,28,16,29,5.20
2021,03,28,16,30,5.20
2021,03,28,16,31,5.20
2021,03,28,16,32,5.20
2021,03,28,16,33,5.20
2021,03,28,16,34,5.30
2021,03,28,16,35,5.30
2021,03,28,16,36,5.30
2021,03,28,16,37,5.30
2021,03,28,16,38,5.30
2021,03,28,16,39,5.30
2021,03,28,16,40,5.30
2021,03,28,16,41,5.30
2021,03,28,16,42,5.30
2021,03,28,16,43,5.30
2021,03,28,16,44,5.30
2021,03,28,16,45,5.30
2021,03,28,16,46,5.30
2021,03,28,16,47,5.20
2021,03,28,16,48,5.20
2021,03,28,16,49,5.20
2021,03,28,16,50,5.10
2021,03,28,16,51,5.10
2021,03,28,16,52,5.00
2021,03,28,16,53,5.00
2021,03,28,16,54,4.90
2021,03,28,16,55,4.80
2021,03,28,16,56,4.80
2021,03,28,16,57,4.80
2021,03,28,16,58,4.70
2021,03,28,16,59,4.70
2021,03,28,17,00,4.70
2021,03,28,17,01,4.60
2021,03,28,17,02,4.60
2021,03,28,17,03,4.50
2021,03,28,17,04,4.50
2021,03,28,17,05,4.40
2021,03,28,17,06,4.40
2021,03,28,17,07,4.40
2021,03,28,17,08,4.40
2021,03,28,17,09,4.40
2021,03,28,17,10,4.40
2021,03,28,17,11,4.40
2021,03,28,17,12,4.40
2021,03,28,17,13,4.40
2021,03,28,17,14,4.40
2021,03,28,17,15,4.40
2021,03,28,17,16,4.30
2021,03,28,17,17,4.30
2021,03,28,17,18,4.30
2021,03,28,17,19,4.30
2021,03,28,17,20,4.30
2021,03,28,17,21,4.40
2021,03,28,17,22,4.40
2021,03,28,17,23,4.50
2021,03,28,17,24,4.50
2021,03,28,17,25,4.50
2021,03,28,17,26,4.50
2021,03,28,17,27,4.60
2021,03,28,17,28,4.70
2021,03,28,17,29,4.70
2021,03,28,17,30,4.80
2021,03,28,17,31,4.80
2021,03,28,17,32,4.90
2021,03,28,17,33,5.10
2021,03,28,17,34,5.20
2021,03,28,17,35,5.30
2021,03,28,17,36,5.40
2021,03,28,17,37,5.50
2021,03,28,17,38,5.60
2021,03,28,17,39,5.70
2021,03,28,17,40,5.70
2021,03,28,17,41,5.80
2021,03,28,17,42,5.80
2021,03,28,17,43,5.90
2021,03,28,17,44,5.90
2021,03,28,17,45,6.00
2021,03,28,17,46,6.00
2021,03,28,17,47,6.00
2021,03,28,17,48,5.90
2021,03,28,17,49,5.80
2021,03,28,17,50,5.70
2021,03,28,17,51,5.60
2021,03,28,17,52,5.60
2021,03,28,17,53,5.60
2021,03,28,17,54,5.70
2021,03,28,17,55,5.80
2021,03,28,17,56,5.80
2021,03,28,17,57,5.90
2021,03,28,17,58,5.90
2021,03,28,17,59,6.00
2021,03,28,18,00,6.10
2021,03,28,18,01,6.10
2021,03,28,18,02,6.10
2021,03,28,18,03,6.20
2021,03,28,18,04,6.20
2021,03,28,18,05,6.30
2021,03,28,18,06,6.30